Lid_Strength_Index
4 3 3 3 3 2 1 1 2 2 2 2 2 3 4 4 4 6 7 8 9 12 12 11 10 14 13 13 13 14 14 16 20 21 23 25 23 20 17 16 16 17 19 19 19 25 25 15 15 19 17 17 18 19
4 3 3 3 2 1 1 1 1 1 1 2 2 2 3 3 4 4 8 7 6 10 12 10 9 7 8 9 10 11 13 15 14 19 22 22 24 22 20 23 14 18 16 17 17 17 15 16 17 16 16 18 17 16
5 5 4 3 2 2 1 1 1 0 1 1 1 2 2 3 3 4 7 8 8 11 13 15 13 10 7 7 6 10 14 12 12 10 14 17 21 14 21 19 18 15 14 15 16 15 16 16 15 16 16 15 15 15
7 6 5 4 3 3 2 2 1 0 0 0 1 1 2 3 3 3 7 7 8 12 18 16 9 11 7 4 5 5 8 8 9 11 13 16 19 11 14 13 15 15 15 17 15 15 15 15 15 15 15 15 15 15
7 7 6 5 4 4 4 3 3 2 1 0 0 1 1 2 2 4 5 6 6 10 18 16 13 13 9 7 6 7 8 9 13 15 16 18 13 11 14 15 16 15 16 17 18 15 15 15 15 15 15 16 16 16
8 8 7 6 5 5 4 4 4 2 2 1 -0 0 1 2 2 6 10 8 5 6 11 17 15 18 20 13 10 10 10 11 12 15 15 13 10 9 18 22 14 14 14 14 16 15 15 14 14 15 16 16 16 17
8 8 7 6 6 5 5 5 4 3 2 2 0 0 1 2 5 8 10 8 3 5 12 15 19 16 19 18 15 11 11 10 11 15 17 14 13 11 18 22 15 14 15 15 16 16 16 16 17 17 18 18 19 21
8 7 7 7 6 6 5 5 4 3 3 2 0 0 1 2 2 5 3 2 3 8 10 17 18 18 17 20 19 21 13 17 18 20 18 19 16 17 21 16 15 16 16 18 17 18 17 17 17 18 19 19 20 19
8 7 7 7 6 6 5 5 4 4 2 1 -0 2 4 6 7 6 2 1 4 8 15 19 21 20 17 21 21 22 21 17 22 23 24 21 25 20 16 16 15 17 17 17 18 20 20 20 20 22 23 23 23 21
8 7 7 7 7 6 5 4 3 3 2 1 4 7 10 9 3 2 5 9 9 10 11 18 20 18 16 20 25 24 27 27 24 25 26 27 23 20 17 18 15 15 16 18 21 21 24 24 24 24 23 25 25 26
8 7 7 6 6 5 4 3 2 2 1 6 8 9 7 3 7 10 13 14 16 18 16 19 17 19 18 19 21 20 24 30 27 25 25 31 25 19 21 22 22 20 19 22 24 25 26 25 24 26 27 29 30 30
7 7 6 5 5 4 3 3 2 3 5 5 6 6 7 10 12 14 18 20 19 17 19 18 19 17 19 17 20 24 25 26 25 33 27 28 19 22 24 24 26 29 28 27 30 26 27 26 28 28 28 29 29 30
7 6 5 4 4 3 3 2 1 1 2 4 6 10 12 14 16 20 22 20 20 19 22 20 21 18 19 19 25 25 25 24 29 29 25 22 20 23 26 30 29 36 36 33 32 35 34 33 35 33 28 29 32 32
5 5 4 3 3 2 1 1 0 1 4 8 10 15 14 18 19 19 20 17 16 18 20 20 23 21 24 23 27 24 28 29 28 29 25 22 22 26 30 32 31 28 32 32 31 33 33 33 31 34 32 31 33 29
4 3 2 2 1 1 1 0 -1 2 6 10 11 14 16 18 23 25 28 22 20 18 18 19 21 18 25 23 26 27 26 28 24 23 22 21 24 30 30 30 28 32 31 32 34 32 31 33 34 30 31 34 36 33
3 2 3 1 1 1 0 1 1 4 7 10 13 16 22 19 20 24 25 20 19 17 18 18 25 22 24 23 24 25 25 25 21 21 19 26 27 30 29 28 27 32 32 31 34 34 34 34 31 29 32 30 32 33
3 4 1 1 1 1 1 2 5 7 9 11 14 22 17 16 15 18 19 17 16 14 17 20 21 20 21 24 24 26 23 20 19 17 18 26 25 26 29 29 29 30 31 32 34 34 33 35 39 34 25 28 32 30
5 4 2 1 1 2 6 6 7 9 12 20 18 20 18 15 17 21 22 18 15 17 18 18 19 23 23 24 24 21 20 21 22 19 18 23 28 31 32 28 32 32 31 31 32 31 35 35 32 27 31 31 31 29
4 3 1 0 2 4 8 8 10 13 20 23 20 17 17 18 19 19 19 18 19 17 17 21 21 21 21 23 23 24 25 22 18 18 20 22 25 31 32 33 31 32 30 30 30 29 31 32 28 29 30 34 30 27
3 2 1 1 2 7 10 11 11 14 18 19 18 17 18 18 18 19 18 16 15 15 18 20 18 21 21 22 21 19 18 19 22 21 18 21 25 30 31 31 27 30 31 33 34 32 33 30 32 34 35 34 33 26
4 5 2 4 8 9 12 14 14 16 17 18 17 16 19 17 17 17 18 18 17 19 18 20 24 26 28 27 26 26 23 23 22 20 19 17 24 26 29 33 34 34 30 31 30 30 32 32 31 33 35 32 29 28
9 2 5 5 10 12 14 15 16 17 18 19 17 16 18 18 18 19 20 19 20 20 21 24 25 25 25 25 25 28 26 26 23 20 19 21 21 24 25 27 28 29 32 31 32 31 31 33 34 34 33 27 25 24
3 3 7 9 13 14 18 15 17 17 18 18 17 18 21 20 22 21 21 24 24 25 28 29 29 31 29 30 30 28 28 24 20 20 22 24 26 29 28 31 35 29 28 30 36 35 34 31 31 29 26 25 24 23
5 10 13 13 14 19 17 19 18 18 18 18 19 22 22 22 22 22 23 26 27 27 27 29 33 28 28 28 28 29 28 26 21 23 24 26 24 27 34 36 38 38 35 36 37 36 35 30 26 25 24 23 23 23
11 16 14 17 16 19 21 23 23 19 22 22 20 22 23 24 23 25 24 27 26 29 30 29 29 27 27 30 30 28 28 24 22 20 25 27 29 32 31 35 36 36 39 32 31 33 28 25 24 24 23 23 23 23
15 20 18 23 23 21 23 23 23 22 21 23 25 25 27 26 25 25 26 28 33 35 34 33 31 28 28 31 30 25 25 26 26 23 27 32 35 31 30 29 30 29 38 36 35 30 27 26 25 25 24 23 22 22
23 25 27 28 25 23 23 22 20 18 19 20 24 26 25 27 28 26 28 34 34 36 35 34 31 29 29 27 25 25 27 29 30 31 36 39 39 39 33 29 29 28 35 34 30 29 28 27 26 25 24 23 21 22
25 27 22 24 23 22 19 19 22 22 21 25 23 28 28 28 25 28 32 33 36 35 31 32 30 28 27 25 26 25 27 29 34 36 36 36 39 38 37 37 36 25 28 28 28 27 27 26 25 24 23 22 21 20
24 24 20 20 21 25 28 25 25 26 28 30 28 30 29 32 33 36 34 34 34 32 28 27 26 26 24 25 25 27 31 34 27 26 27 29 29 27 29 32 30 27 27 27 24 20 20 20 19 20 20 20 19 19
26 27 23 25 24 26 28 31 29 32 33 33 33 30 29 31 32 34 34 33 33 31 29 28 26 24 24 22 24 27 30 34 38 31 28 27 27 30 31 29 28 27 28 27 25 23 20 21 19 18 17 17 17 15
30 28 27 28 28 30 30 32 34 36 38 38 38 32 35 34 32 32 33 30 31 28 26 24 24 26 26 26 27 25 26 34 36 37 37 35 34 32 30 28 27 28 27 26 24 24 24 20 19 17 17 16 15 13
29 31 27 27 28 30 35 35 38 35 33 31 33 38 35 32 32 31 29 29 27 27 27 27 26 31 28 29 31 35 32 33 33 33 33 31 30 28 26 26 25 26 26 25 24 25 22 19 18 18 17 16 16 15
35 34 34 33 32 31 34 32 31 31 31 33 32 36 34 32 30 31 28 29 30 30 29 28 27 28 29 31 34 35 34 36 34 27 25 24 23 22 22 23 25 26 25 25 23 22 21 19 19 18 16 15 15 15